Location: Choqueuse
(49.6526°N, 2.0813°E)
Time: 07:39:38
(UTC+00:00)

Daily predictions for brighter satellites

Satellite Brightness Start Highest point End
(mag) Time Altitude Azimuth Time Altitude Azimuth Time Altitude Azimuth
NOSS 3-1 (A) 4.3 17:48:13 10° NW 17:55:34 79° SW 18:04:19 10° SSE
Cosmos 407 Rocket 4.4 17:56:47 10° SW 18:01:49 53° WNW 18:06:58 10° NNE
CZ-4C R/B 4.0 17:57:31 10° N 18:01:50 67° WNW 18:05:58 10° SSW
CZ-2C R/B 4.4 17:56:54 10° N 18:01:59 39° WNW 18:07:08 10° SW
CZ-4 R/B 4.4 17:58:59 10° SSE 18:03:05 83° ENE 18:07:14 10° NNW
CZ-4B DEB 4.4 17:58:38 10° SSE 18:04:05 84° WSW 18:09:37 10° NNW
SL-16 R/B 3.9 18:07:40 10° ESE 18:08:34 10° E 18:09:28 10° E
USA 186 3.8 18:07:28 10° E 18:09:12 14° ENE 18:10:55 10° NNE
USA 215 3.4 18:02:41 10° ENE 18:09:14 80° NNW 18:15:46 10° WSW
Tsikada Rocket 4.4 18:06:11 10° SSW 18:12:35 73° W 18:19:01 10° N
Cosmos 1844 Rocket 4.3 18:09:34 10° N 18:13:26 18° NE 18:17:18 10° E
SL-4 R/B 2.4 18:09:05 10° WNW 18:13:29 71° N 18:18:03 10° E
ARGOS Delta rocket 4.2 18:09:58 10° NNE 18:15:13 51° E 18:20:11 10° S
Timation 2 Rocket 4.1 18:10:57 10° NNW 18:17:25 59° NE 18:23:34 10° SE
SKYMED 3 4.4 18:13:24 10° NNE 18:17:33 82° ESE 18:21:40 10° SSW
BREEZE-M DEB (TANK) 4.4 18:16:51 10° SSW 18:21:20 51° SE 18:38:14 10° ENE
Okean O Rocket 1.7 18:18:11 10° SSE 18:22:25 55° ENE 18:26:43 10° N
Cosmos 2219 4.1 18:18:43 10° NW 18:24:19 53° WSW 18:29:52 10° S
Nadezhda 4 Rocket 4.5 18:19:32 10° SSE 18:25:16 38° E 18:31:01 10° NNE
Cosmos 1242 Rocket 2.4 18:24:29 10° S 18:28:01 67° E 18:31:34 10° NNE
Spot 1 3.9 18:24:22 10° NNE 18:28:41 77° ESE 18:32:47 10° SSW
BREEZE M DEB (TANK) 4.4 18:25:18 10° SSW 18:29:21 16° SSE 18:31:25 12° ESE
Cosmos 1809 Rocket 4.5 18:24:18 10° S 18:30:13 57° E 18:36:10 10° NNE
SL-14 R/B 3.3 18:26:30 10° N 18:30:26 62° ENE 18:34:22 10° SSE
Cosmos 2263 Rocket 2.2 18:26:09 10° NNW 18:31:50 66° ENE 18:37:30 10° SE
Cosmos 2360 4.4 18:29:05 10° SSW 18:34:49 80° WNW 18:40:35 10° NNE
Cosmos 1805 3.1 18:30:59 10° S 18:34:49 67° E 18:38:42 10° NNE
Cosmos 1674 Rocket 3.6 18:30:32 10° N 18:34:54 60° ENE 18:39:16 10° SSE
YAOGAN 1 2.5 18:31:56 10° SSE 18:36:15 88° ENE 18:40:36 10° NNW
Meteor 2-5 Rocket 4.4 18:31:46 10° N 18:36:45 33° ENE 18:41:16 12° SE
SKYMED 2 4.4 18:33:25 10° N 18:37:41 54° WNW 18:41:55 10° SSW
Cosmos 1726 2.3 18:35:02 10° SSE 18:38:30 44° E 18:42:00 10° NNE
COBE Rocket 3.9 18:33:40 10° SSE 18:38:34 83° WSW 18:43:23 10° NNW
OBJECT-B 1.3 18:38:57 23° E 18:39:37 26° ENE 18:41:51 10° N
H-2A R/B 4.1 18:39:27 14° ENE 18:40:10 15° ENE 18:42:23 10° NNE
Cosmos 2082 4.1 18:37:34 10° NNW 18:43:16 67° WSW 18:48:56 10° SSE
IRIDIUM 106 4.4 18:40:45 10° SSE 18:45:51 57° E 18:50:58 10° N
Cosmos 1766 3.4 18:45:02 10° SSE 18:48:47 47° E 18:52:35 10° NNE
Cosmos 1025 Rocket 4.3 18:46:58 10° NNE 18:50:22 22° ENE 18:51:17 21° E
Cosmos 1697 Rocket 3.3 18:47:13 10° SW 18:52:45 59° NW 18:58:20 10° NNE
CSL-04 Debris 4.3 18:50:43 10° SE 18:55:59 55° ENE 19:01:15 10° N
Cosmos 2221 Rocket 4.1 18:52:53 10° NNW 18:57:22 63° W 19:01:51 10° S
Cosmos 1975 Rocket 4.0 18:55:53 10° N 18:59:46 28° ENE 19:00:50 26° E
ASTEX 1 4.4 18:55:12 10° N 19:00:02 51° WNW 19:04:51 10° SSW
Cosmos 1092 Rocket 4.4 18:56:26 10° SSE 19:02:15 41° E 19:08:03 10° NNE
Landsat 7 4.4 19:00:02 23° ESE 19:02:17 37° ENE 19:06:37 10° N
IGS 5A 3.7 18:59:48 21° SE 19:02:18 47° ENE 19:06:17 10° N
Cosmos 1378 Rocket 3.8 18:59:43 10° NNW 19:04:07 72° W 19:08:26 10° S
Resurs 01 Rocket 2.9 19:05:25 22° ENE 19:05:51 23° ENE 19:09:19 10° N
Cosmos 1733 4.4 19:05:25 10° SSW 19:09:01 44° WNW 19:12:38 10° N
Cosmos 968 Rocket 3.9 19:05:07 10° S 19:09:56 38° ESE 19:14:46 10° NE
ATLAS 2AS CENTAUR R/B 4.4 19:08:28 10° WNW 19:14:45 28° N 19:20:45 10° NE
Cosmos 1470 3.2 19:15:56 38° E 19:15:56 38° E 19:19:15 10° NNE
Cosmos 1733 Rocket 4.3 19:12:00 10° SSW 19:16:16 45° WNW 19:20:34 10° N
ISS -2.8 19:18:53 10° W 19:22:02 38° SSW 19:22:45 33° S
Cosmos 2084 4.0 19:18:50 10° WSW 19:22:32 50° NW 19:25:48 13° NE
Cosmos 2322 Rocket 3.9 19:19:29 10° SSE 19:27:51 16° NE 19:29:15 10° NE
Ariane Rocket 4.1 19:25:15 25° ENE 19:25:30 25° ENE 19:29:36 10° N
CSL-04 Rocket 3.5 19:21:40 16° SSE 19:26:02 84° ENE 19:31:28 10° NNW
Okean-O 2.5 19:24:10 27° SSE 19:26:35 79° ENE 19:31:02 10° NNW
Resurs 1-3 3.5 19:26:16 37° SE 19:27:51 65° ENE 19:32:13 10° N
CZ-4 R/B 2.9 19:24:08 10° SSW 19:28:01 38° W 19:31:56 10° NNW
Gbstr 26 Del rocket 4.5 19:21:42 10° SW 19:29:19 68° SSE 19:34:41 23° ENE
SJ-6B 2.7 19:30:23 32° S 19:32:01 77° WSW 19:35:48 10° NNW
Cosmos 1570 Rocket 3.9 19:26:50 10° NNW 19:32:09 88° ENE 19:34:49 30° SSE
Cosmos 1980 Rocket 2.8 19:27:27 10° SW 19:33:00 57° NW 19:38:34 10° NNE
Meteor 1-12 Rocket 4.4 19:29:07 10° SSW 19:35:07 83° WNW 19:41:11 10° N
Meteor 2-21 Rocket 4.5 19:29:17 10° SSW 19:35:21 81° WNW 19:41:27 10° N
JB-3 4.2 19:34:04 10° NNE 19:38:08 68° E 19:38:37 60° SE
Cosmos 1627 Rocket 4.4 19:32:15 10° S 19:38:17 65° E 19:44:20 10° NNE
USA 186 2.7 19:40:04 34° SSW 19:41:07 49° W 19:44:22 10° NNW
deb Chang Zheng 4 3.4 19:41:18 63° E 19:41:24 63° ENE 19:45:31 10° N
Cosmos 1428 Rocket 4.3 19:39:31 10° S 19:45:41 80° E 19:51:57 10° NNE
Cosmos 2195 Rocket 4.4 19:39:37 10° S 19:45:50 84° E 19:52:10 10° N
Cosmos 2278 3.9 19:42:36 10° SW 19:48:17 74° WNW 19:54:00 10° NNE
Meteor 1-24 Rocket 3.5 19:43:26 10° NNW 19:48:46 83° W 19:51:25 31° S
Cosmos 1437 Rocket 2.9 19:46:01 10° SSW 19:49:45 66° WNW 19:53:29 10° N
SL-16 R/B 2.1 19:45:55 10° SSW 19:51:31 63° ESE 19:57:08 10° NE
USA 215 3.9 19:47:18 19° ENE 19:51:54 49° N 19:58:08 10° W
SL-4 R/B 2.5 19:48:34 10° WNW 19:53:02 59° SSW 19:53:27 56° S
Cosmos 2208 Rocket 4.1 19:50:08 10° NNW 19:55:31 77° WSW 19:57:21 42° S
Cosmos 1844 Rocket 2.6 19:52:44 10° NNW 19:58:25 68° ENE 19:59:17 59° ESE
Okean O Rocket 4.3 19:56:04 10° SW 19:59:06 18° W 20:02:11 10° NW
Meteor 1-22 Rocket 4.2 19:55:42 10° SSW 20:01:04 81° WNW 20:06:42 10° N
USA 81 4.1 19:56:16 10° N 20:01:33 77° W 20:03:45 36° S
Landsat 5 4.4 19:57:18 10° N 20:01:43 53° WNW 20:06:04 10° SSW
Cosmos 2278 Rocket 3.9 19:58:39 10° N 20:02:29 18° NE 20:03:03 18° NE
Cosmos 2026 Rocket 3.9 19:57:15 10° S 20:03:19 87° W 20:09:26 10° N
Cosmos 1782 Rocket 3.8 20:06:54 44° SW 20:08:07 65° WNW 20:12:28 10° N
Cosmos 1553 Rocket 3.9 20:01:55 10° N 20:08:17 76° E 20:09:43 55° SSE
MOS 1 4.1 20:08:42 64° SE 20:09:36 81° ENE 20:15:18 10° NNW
OBJECT-B 3.6 20:09:48 12° W 20:09:48 12° W 20:10:57 10° WNW
Cosmos 1943 Rocket 4.5 20:10:49 10° N 20:12:00 11° NNE 20:13:11 10° NE
H-2A R/B 3.1 20:15:56 51° NW 20:15:56 51° NW 20:19:02 10° NNW
Cosmos 2263 Rocket 4.2 20:10:49 10° NW 20:15:17 24° WSW 20:19:44 10° SSW
USA 281 3.7 20:16:22 40° ENE 20:16:56 41° NE 20:23:00 10° NNW
Cosmos 1844 3.5 20:14:27 10° NNW 20:20:03 82° ENE 20:20:06 82° ENE
MetOp-A 4.4 20:21:56 43° NW 20:21:56 43° NW 20:24:54 10° NNW
Cosmos 1025 Rocket 4.0 20:24:05 10° NNW 20:28:09 42° W 20:28:10 42° W
MetOp-B 4.3 20:31:46 66° NNE 20:31:46 66° NNE 20:36:27 10° NNW
SPOT 1/Viking Rocket 3.7 20:32:07 69° W 20:32:07 69° W 20:37:14 10° NNW
SPOT 3 Rocket 4.3 20:37:48 43° NNE 20:37:48 43° NNE 20:41:25 10° N
Cosmos 2360 Rocket 4.4 20:46:44 13° NNE 20:46:44 13° NNE 20:47:23 10° NNE
Resurs 01 Rocket 2.8 20:42:59 41° WNW 20:42:59 41° WNW 20:46:23 10° NNW
Ariane Rocket 4.0 21:05:27 43° NW 21:05:27 43° NW 21:09:09 10° NNW
Terra 3.8 21:07:10 23° N 21:07:10 23° N 21:09:03 10° N
ERS-1 Rocket 4.5 21:07:50 31° N 21:07:50 31° N 21:10:28 10° N
ATLAS 2AS CENTAUR R/B 3.9 21:01:24 10° NW 21:07:53 32° NNE 21:08:59 31° NE
Cosmos 2322 Rocket 3.1 21:09:30 44° N 21:09:30 44° N 21:13:44 10° NNE
Gbstr 26 Del rocket 4.5 21:08:55 10° W 21:16:58 79° N 21:17:10 79° N
S3M 4.5 21:11:03 10° NNW 21:16:36 56° WNW 21:16:36 56° WNW
NOSS 3-4 (A) 4.0 21:12:33 10° NW 21:18:30 66° N 21:18:30 66° N
NOSS 3-4 (C) 4.0 21:12:40 10° NW 21:18:36 65° N 21:18:36 65° N
USA 215 3.8 21:34:39 51° N 21:34:39 51° N 21:40:37 10° WNW
SL-16 R/B 3.9 21:31:09 10° WSW 21:36:03 29° NW 21:40:59 10° NNE
Cosmos 2278 Rocket 3.8 21:42:01 10° NNW 21:44:53 30° NNW 21:44:53 30° NNW
Cosmos 1943 Rocket 4.2 21:52:43 10° NNW 21:54:57 21° N 21:54:57 21° N
USA 281 4.2 22:03:15 41° WNW 22:03:15 41° WNW 22:07:43 10° NNW
Cosmos 2369 Rocket 4.5 21:57:27 10° N 22:00:00 17° NNE 22:00:00 17° NNE
Cosmos 2360 Rocket 4.4 22:28:28 21° N 22:28:28 21° N 22:31:02 10° NNE
ATLAS 2AS CENTAUR R/B 4.1 22:52:45 10° NW 22:56:24 32° NW 22:56:24 32° NW
